軌道要素
Epoch 2019 Dec. 23.0 TT = JDT 2458840.5
T 2019 Dec. 20.99005 TT MPCW
q 0.9588857 (2000.0) P Q
n 0.18531536 Peri. 9.84665 +0.19558425 -0.97598902
a 3.0469250 Node 68.92384 +0.89262870 +0.13668019
e 0.6852940 Incl. 5.89754 +0.40615368 +0.16959940
P 5.32
From 341 observations 2003 Oct. 25-2019 Nov. 21, mean residual 0".8.
Nongravitational parameters A1 = -0.10, A2 = -0.0082.
|